Location: Newark
(41.6500°N, 71.4833°W)
Time: 07:24:12
(UTC+00:00)

deb Explorer IX - Pass Details

Date: 27 January 2020
Orbit: 549 x 1099 km, 38.8° (Epoch: 20 February)

Event Time Altitude Azimuth Distance (km) Brightness Sun altitude
Rises 00:04:20 0° 200° (SSW) 3,530 ? -24.4°
Reaches altitude 10° 00:07:37 10° 183° (S) 2,688 ? -25.0°
Enters shadow 00:10:33 18° 157° (SSE) 2,255 ? -25.6°
Maximum altitude 00:11:59 19° 141° (SE) 2,218 - -25.8°
Drops below altitude 10° 00:16:38 10° 100° (E) 2,889 - -26.7°
Sets 00:20:19 0° 84° (E) 3,890 - -27.4°
